| time (UTC) | temp F | wind direction | speed MPH | gust MPH | rain 1hr in | rain 24hr in | rain mn in | humidity % | barometer mb |
| 20260503035146 | 68 | 2 | 6.0 | 11.0 | 0.00 | 0.00 | 0.68 | 45 | 1018.6 |
| 20260503034646 | 68 | 26 | 2.0 | 7.0 | 0.00 | 0.00 | 0.68 | 45 | 1018.3 |
| 20260503034148 | 69 | 27 | 5.0 | 9.0 | 0.00 | 0.00 | 0.68 | 44 | 1018.6 |
| 20260503033647 | 69 | 285 | 4.0 | 8.0 | 0.00 | 0.00 | 0.68 | 44 | 1018.6 |
| 20260503033146 | 69 | 6 | 8.0 | 12.0 | 0.00 | 0.00 | 0.68 | 44 | 1018.3 |
| 20260503032646 | 69 | 31 | 7.0 | 9.0 | 0.00 | 0.00 | 0.68 | 44 | 1018.3 |
| 20260503032146 | 69 | 10 | 11.0 | 13.0 | 0.00 | 0.00 | 0.68 | 43 | 1017.9 |
| 20260503031647 | 69 | 12 | 4.0 | 7.0 | 0.00 | 0.00 | 0.68 | 44 | 1018.3 |
| 20260503031146 | 69 | 6 | 7.0 | 11.0 | 0.00 | 0.00 | 0.68 | 43 | 1018.3 |
| 20260503030646 | 69 | 3 | 9.0 | 13.0 | 0.00 | 0.00 | 0.68 | 43 | 1018.3 |
| 20260503030147 | 69 | 352 | 4.0 | 12.0 | 0.00 | 0.00 | 0.68 | 43 | 1018.3 |
| 20260503025646 | 69 | 14 | 9.0 | 9.0 | 0.00 | 0.00 | 0.68 | 42 | 1017.9 |
| 20260503025147 | 69 | 11 | 5.0 | 9.0 | 0.00 | 0.00 | 0.68 | 41 | 1017.9 |
| 20260503024646 | 69 | 41 | 3.0 | 9.0 | 0.00 | 0.00 | 0.68 | 42 | 1017.9 |
| 20260503024146 | 69 | 303 | 3.0 | 11.0 | 0.00 | 0.00 | 0.68 | 42 | 1017.9 |
| 20260503023646 | 69 | 17 | 4.0 | 11.0 | 0.00 | 0.00 | 0.68 | 41 | 1017.9 |
| 20260503023146 | 69 | 4 | 6.0 | 10.0 | 0.00 | 0.00 | 0.68 | 42 | 1017.9 |
| 20260503022647 | 69 | 336 | 3.0 | 9.0 | 0.00 | 0.00 | 0.68 | 42 | 1017.6 |
| 20260503022147 | 69 | 329 | 6.0 | 10.0 | 0.00 | 0.00 | 0.68 | 41 | 1017.6 |
| 20260503021646 | 69 | 27 | 8.0 | 11.0 | 0.00 | 0.00 | 0.68 | 41 | 1017.6 |
| 20260503021148 | 69 | 11 | 9.0 | 13.0 | 0.00 | 0.00 | 0.68 | 41 | 1017.9 |
| 20260503020647 | 69 | 14 | 6.0 | 10.0 | 0.00 | 0.00 | 0.68 | 41 | 1017.6 |
| 20260503020146 | 69 | 25 | 7.0 | 11.0 | 0.00 | 0.00 | 0.68 | 42 | 1017.6 |
| 20260503015647 | 69 | 356 | 7.0 | 10.0 | 0.00 | 0.00 | 0.68 | 42 | 1017.3 |
| 20260503015147 | 69 | 1 | 6.0 | 11.0 | 0.00 | 0.00 | 0.68 | 41 | 1017.3 |
| 20260503014647 | 69 | 338 | 7.0 | 10.0 | 0.00 | 0.00 | 0.68 | 41 | 1017.3 |
| 20260503014146 | 70 | 47 | 7.0 | 9.0 | 0.00 | 0.00 | 0.68 | 40 | 1017.3 |
| 20260503013646 | 69 | 317 | 4.0 | 7.0 | 0.00 | 0.00 | 0.68 | 42 | 1017.3 |
| 20260503013147 | 70 | 337 | 5.0 | 9.0 | 0.00 | 0.00 | 0.68 | 42 | 1017.3 |
| 20260503012646 | 70 | 341 | 3.0 | 8.0 | 0.00 | 0.00 | 0.68 | 42 | 1017.3 |
| 20260503012147 | 70 | 1 | 4.0 | 7.0 | 0.00 | 0.00 | 0.68 | 42 | 1017.3 |
| 20260503011646 | 70 | 317 | 3.0 | 9.0 | 0.00 | 0.00 | 0.68 | 42 | 1017.3 |
| 20260503011146 | 70 | 0 | 1.0 | 7.0 | 0.00 | 0.00 | 0.68 | 42 | 1016.9 |
| 20260503010647 | 70 | 353 | 6.0 | 10.0 | 0.00 | 0.00 | 0.68 | 41 | 1016.9 |
| 20260503010146 | 70 | 326 | 7.0 | 7.0 | 0.00 | 0.00 | 0.68 | 40 | 1016.9 |
| 20260503005646 | 70 | 5 | 5.0 | 11.0 | 0.00 | 0.00 | 0.68 | 40 | 1016.6 |
| 20260503005146 | 70 | 11 | 6.0 | 7.0 | 0.00 | 0.00 | 0.68 | 40 | 1016.6 |
| 20260503004646 | 70 | 4 | 4.0 | 11.0 | 0.00 | 0.00 | 0.68 | 40 | 1016.6 |
| 20260503004146 | 70 | 307 | 4.0 | 11.0 | 0.00 | 0.00 | 0.68 | 40 | 1016.6 |
| 20260503003646 | 71 | 330 | 5.0 | 13.0 | 0.00 | 0.00 | 0.68 | 41 | 1016.3 |
| 20260503003146 | 71 | 356 | 2.0 | 7.0 | 0.00 | 0.00 | 0.68 | 41 | 1016.3 |
| 20260503002647 | 71 | 349 | 4.0 | 9.0 | 0.00 | 0.00 | 0.68 | 40 | 1015.9 |
| 20260503002147 | 71 | 25 | 4.0 | 7.0 | 0.00 | 0.00 | 0.68 | 40 | 1015.9 |
| 20260503001646 | 71 | 2 | 3.0 | 13.0 | 0.00 | 0.00 | 0.68 | 39 | 1015.9 |
| 20260503001147 | 71 | 29 | 7.0 | 10.0 | 0.00 | 0.00 | 0.68 | 39 | 1015.9 |
| 20260503000648 | 71 | 355 | 5.0 | 11.0 | 0.00 | 0.00 | 0.68 | 38 | 1015.9 |
| 20260503000146 | 72 | 336 | 5.0 | 15.0 | 0.00 | 0.00 | 0.68 | 38 | 1015.9 |
| 20260502235646 | 72 | 353 | 7.0 | 14.0 | 0.00 | 0.00 | 0.68 | 38 | 1015.9 |
| 20260502235146 | 72 | 301 | 5.0 | 11.0 | 0.00 | 0.00 | 0.68 | 38 | 1015.6 |
| 20260502234647 | 72 | 359 | 7.0 | 15.0 | 0.00 | 0.00 | 0.68 | 37 | 1015.6 |
| 20260502234146 | 72 | 8 | 4.0 | 12.0 | 0.00 | 0.00 | 0.68 | 37 | 1015.2 |
| 20260502233647 | 72 | 337 | 4.0 | 11.0 | 0.00 | 0.00 | 0.68 | 37 | 1015.2 |
| 20260502233146 | 72 | 349 | 8.0 | 11.0 | 0.00 | 0.00 | 0.68 | 38 | 1015.2 |
| 20260502232647 | 72 | 1 | 4.0 | 12.0 | 0.00 | 0.00 | 0.68 | 37 | 1015.2 |
| 20260502232146 | 73 | 6 | 4.0 | 12.0 | 0.00 | 0.00 | 0.68 | 37 | 1015.6 |
| 20260502231646 | 73 | 332 | 8.0 | 12.0 | 0.00 | 0.00 | 0.68 | 36 | 1015.2 |
| 20260502231147 | 73 | 337 | 6.0 | 10.0 | 0.00 | 0.00 | 0.68 | 36 | 1015.2 |
| 20260502230646 | 73 | 321 | 4.0 | 8.0 | 0.00 | 0.00 | 0.68 | 37 | 1015.2 |
| 20260502230146 | 73 | 8 | 11.0 | 13.0 | 0.00 | 0.00 | 0.68 | 37 | 1014.9 |
| 20260502225648 | 73 | 331 | 7.0 | 13.0 | 0.00 | 0.00 | 0.68 | 37 | 1015.2 |
| 20260502225146 | 73 | 22 | 11.0 | 15.0 | 0.00 | 0.00 | 0.68 | 37 | 1014.9 |
| 20260502224647 | 73 | 350 | 5.0 | 15.0 | 0.00 | 0.00 | 0.68 | 37 | 1015.2 |
| 20260502224146 | 73 | 19 | 6.0 | 11.0 | 0.00 | 0.00 | 0.68 | 38 | 1014.9 |
| 20260502223646 | 73 | 312 | 5.0 | 8.0 | 0.00 | 0.00 | 0.68 | 38 | 1014.9 |
| 20260502223146 | 73 | 345 | 4.0 | 11.0 | 0.00 | 0.00 | 0.68 | 37 | 1014.9 |
| 20260502222646 | 73 | 315 | 4.0 | 12.0 | 0.00 | 0.00 | 0.68 | 38 | 1014.9 |
| 20260502222146 | 73 | 338 | 5.0 | 9.0 | 0.00 | 0.00 | 0.68 | 38 | 1014.6 |
| 20260502221646 | 72 | 5 | 7.0 | 10.0 | 0.00 | 0.00 | 0.68 | 37 | 1014.9 |
| 20260502221146 | 72 | 5 | 7.0 | 10.0 | 0.00 | 0.00 | 0.68 | 37 | 1014.9 |
| 20260502220646 | 73 | 342 | 6.0 | 13.0 | 0.00 | 0.00 | 0.68 | 38 | 1014.9 |
| 20260502220146 | 73 | 22 | 7.0 | 15.0 | 0.00 | 0.00 | 0.68 | 37 | 1014.9 |
| 20260502215646 | 73 | 22 | 9.0 | 15.0 | 0.00 | 0.00 | 0.68 | 37 | 1014.9 |
| 20260502215146 | 73 | 13 | 7.0 | 14.0 | 0.00 | 0.00 | 0.68 | 38 | 1014.9 |
| 20260502214646 | 73 | 334 | 12.0 | 15.0 | 0.00 | 0.00 | 0.68 | 38 | 1014.9 |
| 20260502214146 | 73 | 305 | 6.0 | 16.0 | 0.00 | 0.00 | 0.68 | 38 | 1014.9 |
| 20260502213646 | 73 | 337 | 6.0 | 11.0 | 0.00 | 0.00 | 0.68 | 39 | 1014.9 |
| 20260502213146 | 72 | 341 | 6.0 | 15.0 | 0.00 | 0.00 | 0.68 | 37 | 1014.9 |
| 20260502212646 | 73 | 26 | 11.0 | 12.0 | 0.00 | 0.00 | 0.68 | 38 | 1014.9 |
| 20260502212146 | 73 | 334 | 8.0 | 16.0 | 0.00 | 0.00 | 0.68 | 40 | 1014.9 |
| 20260502211647 | 73 | 8 | 8.0 | 14.0 | 0.00 | 0.00 | 0.68 | 41 | 1014.6 |
| 20260502211146 | 73 | 354 | 4.0 | 16.0 | 0.00 | 0.00 | 0.68 | 39 | 1014.6 |
| 20260502210646 | 73 | 2 | 9.0 | 14.0 | 0.00 | 0.00 | 0.68 | 40 | 1014.9 |
| 20260502210147 | 72 | 330 | 7.0 | 15.0 | 0.00 | 0.00 | 0.68 | 40 | 1014.9 |
| 20260502205647 | 73 | 339 | 8.0 | 18.0 | 0.00 | 0.00 | 0.68 | 40 | 1014.9 |
| 20260502205147 | 72 | 320 | 13.0 | 17.0 | 0.00 | 0.00 | 0.68 | 42 | 1014.9 |
| 20260502204646 | 73 | 46 | 12.0 | 14.0 | 0.00 | 0.00 | 0.68 | 42 | 1014.9 |
| 20260502204147 | 72 | 353 | 12.0 | 20.0 | 0.00 | 0.00 | 0.68 | 42 | 1014.9 |
| 20260502203647 | 72 | 15 | 13.0 | 16.0 | 0.00 | 0.00 | 0.68 | 44 | 1014.9 |
| 20260502203146 | 73 | 35 | 8.0 | 14.0 | 0.00 | 0.00 | 0.68 | 43 | 1014.9 |
| 20260502202646 | 73 | 340 | 7.0 | 16.0 | 0.00 | 0.00 | 0.68 | 45 | 1014.6 |
| 20260502202147 | 72 | 353 | 7.0 | 9.0 | 0.00 | 0.00 | 0.68 | 47 | 1014.9 |
| 20260502201646 | 72 | 339 | 13.0 | 14.0 | 0.00 | 0.00 | 0.68 | 49 | 1014.9 |
| 20260502201146 | 72 | 347 | 7.0 | 17.0 | 0.00 | 0.00 | 0.68 | 49 | 1014.9 |
| 20260502200646 | 72 | 16 | 5.0 | 19.0 | 0.00 | 0.00 | 0.68 | 49 | 1015.2 |
| 20260502200147 | 72 | 352 | 8.0 | 15.0 | 0.00 | 0.00 | 0.68 | 51 | 1015.2 |
| 20260502195646 | 72 | 331 | 9.0 | 17.0 | 0.00 | 0.00 | 0.68 | 53 | 1015.2 |
| 20260502195146 | 72 | 339 | 5.0 | 14.0 | 0.00 | 0.00 | 0.68 | 53 | 1015.2 |
| 20260502194646 | 72 | 342 | 5.0 | 15.0 | 0.00 | 0.00 | 0.68 | 53 | 1015.2 |
| 20260502194149 | 71 | 331 | 7.0 | 14.0 | 0.00 | 0.00 | 0.68 | 53 | 1015.2 |
| 20260502193647 | 71 | 358 | 5.0 | 23.0 | 0.00 | 0.00 | 0.68 | 55 | 1015.2 |
| 20260502193146 | 72 | 1 | 10.0 | 16.0 | 0.00 | 0.00 | 0.68 | 53 | 1015.6 |
| 20260502192646 | 72 | 11 | 7.0 | 18.0 | 0.00 | 0.00 | 0.68 | 55 | 1015.6 |
| 20260502192147 | 71 | 50 | 2.0 | 12.0 | 0.00 | 0.00 | 0.68 | 57 | 1015.6 |
| 20260502191647 | 71 | 11 | 7.0 | 17.0 | 0.00 | 0.00 | 0.68 | 56 | 1015.2 |
| 20260502191146 | 71 | 352 | 8.0 | 18.0 | 0.00 | 0.00 | 0.68 | 55 | 1015.2 |
| 20260502190647 | 72 | 310 | 14.0 | 16.0 | 0.00 | 0.00 | 0.68 | 56 | 1015.2 |
| 20260502190146 | 71 | 12 | 5.0 | 9.0 | 0.00 | 0.00 | 0.68 | 58 | 1015.6 |
| 20260502185646 | 71 | 344 | 7.0 | 14.0 | 0.00 | 0.00 | 0.68 | 59 | 1015.6 |
| 20260502185146 | 71 | 10 | 9.0 | 15.0 | 0.00 | 0.00 | 0.68 | 56 | 1015.6 |
| 20260502184646 | 71 | 332 | 7.0 | 10.0 | 0.00 | 0.00 | 0.68 | 58 | 1015.2 |
| 20260502184146 | 70 | 309 | 8.0 | 12.0 | 0.00 | 0.00 | 0.68 | 59 | 1015.2 |
| 20260502183646 | 71 | 42 | 7.0 | 21.0 | 0.00 | 0.00 | 0.68 | 58 | 1015.6 |
| 20260502183146 | 71 | 28 | 4.0 | 11.0 | 0.00 | 0.00 | 0.68 | 59 | 1015.6 |
| 20260502182647 | 71 | 334 | 5.0 | 15.0 | 0.00 | 0.00 | 0.68 | 60 | 1015.6 |
| 20260502182146 | 70 | 334 | 6.0 | 13.0 | 0.00 | 0.00 | 0.68 | 60 | 1015.6 |
| 20260502181647 | 71 | 326 | 9.0 | 15.0 | 0.00 | 0.00 | 0.68 | 58 | 1015.6 |
| 20260502181147 | 70 | 21 | 10.0 | 15.0 | 0.00 | 0.00 | 0.68 | 59 | 1015.6 |
| 20260502180646 | 70 | 1 | 6.0 | 15.0 | 0.00 | 0.00 | 0.68 | 59 | 1015.6 |
| 20260502180146 | 69 | 12 | 8.0 | 19.0 | 0.00 | 0.00 | 0.68 | 59 | 1015.6 |
| 20260502170146 | 68 | 38 | 5.0 | 12.0 | 0.00 | 0.00 | 0.68 | 66 | 1016.3 |
| 20260502164157 | 66 | 350 | 10.0 | 14.0 | 0.00 | 0.00 | 0.68 | 71 | 1016.3 |
| 20260502163646 | 66 | 22 | 11.0 | 17.0 | 0.00 | 0.00 | 0.68 | 70 | 1016.3 |
| 20260502163147 | 66 | 358 | 5.0 | 13.0 | 0.00 | 0.00 | 0.68 | 70 | 1016.3 |
| 20260502162646 | 66 | 326 | 5.0 | 12.0 | 0.00 | 0.00 | 0.68 | 70 | 1016.3 |
| 20260502162146 | 66 | 13 | 6.0 | 13.0 | 0.00 | 0.00 | 0.68 | 71 | 1016.3 |
| 20260502161647 | 66 | 357 | 9.0 | 16.0 | 0.00 | 0.00 | 0.68 | 72 | 1016.3 |
| 20260502161147 | 65 | 34 | 9.0 | 14.0 | 0.00 | 0.00 | 0.68 | 73 | 1016.6 |
| 20260502160647 | 65 | 357 | 10.0 | 14.0 | 0.00 | 0.00 | 0.68 | 74 | 1015.9 |
| 20260502160146 | 64 | 20 | 11.0 | 15.0 | 0.00 | 0.00 | 0.68 | 75 | 1016.3 |
| 20260502152146 | 63 | 354 | 2.0 | 8.0 | 0.00 | 0.00 | 0.68 | 78 | 1016.3 |
| 20260502151646 | 63 | 36 | 5.0 | 9.0 | 0.00 | 0.00 | 0.68 | 78 | 1016.3 |
| 20260502151146 | 63 | 325 | 7.0 | 14.0 | 0.00 | 0.00 | 0.68 | 78 | 1016.3 |
| 20260502150647 | 63 | 331 | 6.0 | 11.0 | 0.00 | 0.00 | 0.68 | 78 | 1016.3 |
| 20260502150148 | 62 | 9 | 6.0 | 13.0 | 0.00 | 0.00 | 0.68 | 78 | 1016.3 |
| 20260502130158 | 59 | 359 | 6.0 | 17.0 | 0.00 | 0.00 | 0.68 | 82 | 1014.9 |
| 20260502123647 | 58 | 23 | 7.0 | 16.0 | 0.00 | 0.00 | 0.68 | 86 | 1014.2 |
| 20260502123148 | 58 | 25 | 6.0 | 10.0 | 0.00 | 0.00 | 0.68 | 87 | 1014.2 |
| 20260502122646 | 58 | 24 | 6.0 | 12.0 | 0.00 | 0.00 | 0.68 | 87 | 1014.2 |
| 20260502122146 | 58 | 35 | 9.0 | 21.0 | 0.00 | 0.00 | 0.68 | 87 | 1014.2 |
| 20260502121646 | 58 | 24 | 8.0 | 18.0 | 0.00 | 0.00 | 0.68 | 87 | 1014.2 |
| 20260502121147 | 58 | 39 | 12.0 | 18.0 | 0.00 | 0.00 | 0.68 | 89 | 1014.2 |
| 20260502120646 | 58 | 5 | 10.0 | 14.0 | 0.00 | 0.00 | 0.68 | 90 | 1014.2 |
| 20260502120146 | 57 | 12 | 9.0 | 17.0 | 0.00 | 0.00 | 0.68 | 90 | 1014.2 |
| 20260502115647 | 57 | 25 | 12.0 | 20.0 | 0.00 | 0.00 | 0.68 | 90 | 1013.9 |
| 20260502115146 | 58 | 346 | 4.0 | 19.0 | 0.00 | 0.00 | 0.68 | 91 | 1013.5 |
| 20260502114647 | 58 | 37 | 9.0 | 15.0 | 0.00 | 0.00 | 0.68 | 90 | 1013.5 |
| 20260502114146 | 58 | 24 | 12.0 | 21.0 | 0.00 | 0.00 | 0.68 | 90 | 1013.5 |
| 20260502113647 | 58 | 34 | 11.0 | 19.0 | 0.00 | 0.00 | 0.68 | 90 | 1013.5 |
| 20260502113146 | 58 | 10 | 5.0 | 16.0 | 0.00 | 0.00 | 0.68 | 91 | 1013.5 |
| 20260502112647 | 57 | 24 | 5.0 | 15.0 | 0.00 | 0.00 | 0.68 | 92 | 1013.2 |
| 20260502112147 | 57 | 24 | 6.0 | 20.0 | 0.00 | 0.00 | 0.68 | 93 | 1013.2 |
| 20260502111647 | 57 | 46 | 6.0 | 14.0 | 0.00 | 0.00 | 0.68 | 94 | 1013.2 |
| 20260502111147 | 57 | 351 | 6.0 | 11.0 | 0.00 | 0.00 | 0.68 | 95 | 1013.2 |
| 20260502110646 | 57 | 43 | 8.0 | 13.0 | 0.02 | 0.00 | 0.68 | 95 | 1012.9 |
| 20260502110146 | 57 | 23 | 11.0 | 16.0 | 0.02 | 0.00 | 0.68 | 95 | 1013.2 |
| 20260502105647 | 57 | 35 | 11.0 | 18.0 | 0.00 | 0.00 | 0.67 | 96 | 1012.9 |
| 20260502105148 | 57 | 9 | 8.0 | 17.0 | 0.00 | 0.00 | 0.67 | 96 | 1012.9 |
| 20260502104646 | 57 | 38 | 6.0 | 12.0 | 0.00 | 0.00 | 0.67 | 95 | 1012.9 |
| 20260502104147 | 57 | 35 | 13.0 | 19.0 | 0.00 | 0.00 | 0.67 | 95 | 1012.9 |
| 20260502103646 | 57 | 33 | 10.0 | 17.0 | 0.00 | 0.00 | 0.67 | 95 | 1012.9 |
| 20260502103152 | 57 | 20 | 13.0 | 15.0 | 0.02 | 0.00 | 0.67 | 95 | 1012.9 |
| 20260502102650 | 57 | 15 | 6.0 | 16.0 | 0.02 | 0.00 | 0.67 | 96 | 1012.5 |
| 20260502102146 | 57 | 48 | 3.0 | 17.0 | 0.00 | 0.00 | 0.67 | 95 | 1012.5 |
| 20260502101651 | 57 | 2 | 5.0 | 18.0 | 0.00 | 0.00 | 0.67 | 94 | 1012.5 |
| 20260502101146 | 58 | 18 | 4.0 | 10.0 | 0.00 | 0.00 | 0.67 | 93 | 1012.5 |
| 20260502100647 | 58 | 30 | 11.0 | 17.0 | 0.00 | 0.00 | 0.67 | 92 | 1012.5 |
| 20260502100147 | 58 | 358 | 6.0 | 13.0 | 0.00 | 0.00 | 0.67 | 93 | 1012.5 |
| 20260502091146 | 57 | 0 | 9.0 | 13.0 | 0.00 | 0.00 | 0.67 | 95 | 1012.2 |
| 20260502090648 | 57 | 74 | 3.0 | 13.0 | 0.00 | 0.00 | 0.67 | 95 | 1012.5 |
| 20260502090149 | 57 | 76 | 3.0 | 7.0 | 0.00 | 0.00 | 0.67 | 96 | 1012.5 |
| 20260502071146 | 58 | 4 | 4.0 | 15.0 | 0.73 | 0.00 | 0.61 | 98 | 1011.2 |
| 20260502070646 | 58 | 315 | 8.0 | 9.0 | 0.17 | 0.00 | 0.50 | 98 | 1012.9 |
| 20260502070149 | 58 | 355 | 3.0 | 11.0 | 0.24 | 0.00 | 0.48 | 98 | 1012.2 |
| 20260502065647 | 58 | 45 | 7.0 | 11.0 | 0.19 | 0.00 | 0.47 | 98 | 1011.5 |
| 20260502065146 | 58 | 17 | 10.0 | 16.0 | 0.19 | 0.00 | 0.45 | 98 | 1011.5 |
| 20260502064647 | 58 | 23 | 10.0 | 12.0 | 0.17 | 0.00 | 0.43 | 98 | 1011.9 |
| 20260502064146 | 59 | 0 | 7.0 | 10.0 | 0.12 | 0.00 | 0.41 | 98 | 1012.2 |
| 20260502063647 | 58 | 1 | 8.0 | 14.0 | 0.14 | 0.00 | 0.41 | 98 | 1011.9 |
| 20260502063146 | 59 | 352 | 8.0 | 11.0 | 0.05 | 0.00 | 0.39 | 98 | 1011.9 |
| 20260502062647 | 58 | 324 | 7.0 | 9.0 | 0.00 | 0.00 | 0.38 | 99 | 1012.2 |
| 20260502062146 | 58 | 354 | 4.0 | 14.0 | 0.00 | 0.00 | 0.38 | 99 | 1011.9 |
| 20260502061646 | 59 | 1 | 6.0 | 11.0 | 0.00 | 0.00 | 0.38 | 99 | 1011.9 |
| 20260502061147 | 59 | 347 | 5.0 | 12.0 | 0.02 | 0.00 | 0.38 | 99 | 1011.9 |
| 20260502060646 | 59 | 22 | 8.0 | 14.0 | 0.02 | 0.00 | 0.38 | 99 | 1011.9 |
| 20260502060146 | 59 | 356 | 3.0 | 17.0 | 0.02 | 0.00 | 0.38 | 99 | 1011.9 |
| 20260502055646 | 59 | 1 | 12.0 | 13.0 | 0.07 | 0.00 | 0.38 | 99 | 1011.9 |
| 20260502055146 | 59 | 7 | 5.0 | 14.0 | 0.21 | 0.00 | 0.37 | 99 | 1012.2 |
| 20260502054646 | 59 | 353 | 3.0 | 9.0 | 0.85 | 0.00 | 0.37 | 99 | 1012.2 |
| 20260502054146 | 59 | 339 | 4.0 | 9.0 | 1.79 | 0.00 | 0.34 | 99 | 1012.5 |
| 20260502053648 | 59 | 5 | 7.0 | 12.0 | 0.78 | 0.00 | 0.17 | 99 | 1011.9 |
| 20260502053146 | 59 | 0 | 3.0 | 8.0 | 0.05 | 0.00 | 0.04 | 99 | 1012.5 |
| 20260502052647 | 60 | 18 | 3.0 | 11.0 | 0.09 | 0.00 | 0.04 | 99 | 1011.5 |
| 20260502052147 | 60 | 2 | 11.0 | 14.0 | 0.17 | 0.00 | 0.03 | 98 | 1011.2 |
| 20260502051646 | 60 | 31 | 3.0 | 8.0 | 0.09 | 0.00 | 0.02 | 98 | 1011.9 |
| 20260502051146 | 60 | 317 | 5.0 | 7.0 | 0.02 | 0.00 | 0.00 | 98 | 1012.2 |
| 20260502050648 | 60 | 48 | 4.0 | 9.0 | 0.02 | 0.00 | 0.00 | 98 | 1012.2 |
| 20260502050147 | 60 | 353 | 1.0 | 7.0 | 0.05 | 0.00 | 0.00 | 98 | 1012.9 |
| 20260502045646 | 60 | 0 | 5.0 | 10.0 | 0.07 | 0.00 | 1.63 | 98 | 1011.5 |
| 20260502045147 | 60 | 26 | 7.0 | 12.0 | 0.02 | 0.00 | 1.62 | 98 | 1011.9 |
| 20260502044647 | 60 | 34 | 3.0 | 11.0 | 0.00 | 0.00 | 1.61 | 98 | 1011.9 |
| 20260502044147 | 60 | 8 | 7.0 | 10.0 | 0.02 | 0.00 | 1.61 | 98 | 1011.9 |
| 20260502043647 | 60 | 45 | 5.0 | 17.0 | 0.02 | 0.00 | 1.61 | 99 | 1011.5 |
| 20260502043147 | 60 | 12 | 6.0 | 9.0 | 0.02 | 0.00 | 1.61 | 99 | 1011.5 |
| 20260502042646 | 60 | 63 | 6.0 | 12.0 | 0.05 | 0.00 | 1.61 | 99 | 1011.2 |
| 20260502042147 | 60 | 44 | 9.0 | 12.0 | 0.02 | 0.00 | 1.61 | 99 | 1010.8 |
| 20260502041647 | 60 | 5 | 5.0 | 10.0 | 0.00 | 0.00 | 1.60 | 99 | 1011.2 |
| 20260502041146 | 60 | 23 | 7.0 | 10.0 | 0.02 | 0.00 | 1.60 | 99 | 1011.2 |
| 20260502040646 | 60 | 336 | 7.0 | 11.0 | 0.02 | 0.00 | 1.60 | 99 | 1011.2 |
| 20260502040147 | 60 | 36 | 8.0 | 13.0 | 0.02 | 0.00 | 1.60 | 99 | 1011.2 |
| 20260502035646 | 59 | 31 | 5.0 | 11.0 | 0.02 | 0.00 | 1.60 | 99 | 1010.8 |